Time,TemperatureF,DewpointF,PressureIn,WindDirection,WindDirectionDegrees,WindSpeedMPH,WindSpeedGustMPH,Humidity,HourlyPrecipIn,Conditions,Clouds,dailyrainin,SoftwareType,DateUTC
2013-11-13 00:00:00,25.4,15.3,30.52,NE,55,4.0,15.0,65,0.00,,OVC055,0.00,VWS V14.01,2013-11-13 05:00:00,
2013-11-13 00:01:00,25.4,14.9,30.52,NE,38,6.0,9.0,64,0.00,,OVC055,0.00,VWS V14.01,2013-11-13 05:01:00,
2013-11-13 00:06:00,25.2,15.1,30.52,NNE,22,5.0,10.0,65,0.00,,OVC055,0.00,VWS V14.01,2013-11-13 05:06:00,
2013-11-13 00:11:00,25.2,15.1,30.51,NNE,15,6.0,14.0,65,0.00,,OVC055,0.00,VWS V14.01,2013-11-13 05:11:00,
2013-11-13 00:16:00,25.2,15.1,30.51,NE,37,8.0,14.0,65,0.00,,OVC055,0.00,VWS V14.01,2013-11-13 05:16:00,
2013-11-13 00:21:00,25.3,14.8,30.51,NE,48,6.0,14.0,64,0.00,,OVC055,0.00,VWS V14.01,2013-11-13 05:21:00,
2013-11-13 00:26:00,25.2,15.1,30.51,ENE,58,4.0,14.0,65,0.00,,OVC055,0.00,VWS V14.01,2013-11-13 05:26:00,
2013-11-13 00:30:00,25.2,14.8,30.51,NE,39,6.0,14.0,64,0.00,,OVC055,0.00,VWS V14.01,2013-11-13 05:30:00,
2013-11-13 00:31:00,25.3,14.8,30.50,NE,38,4.0,10.0,64,0.00,,OVC055,0.00,VWS V14.01,2013-11-13 05:31:00,
2013-11-13 00:36:00,25.2,14.8,30.51,North,360,8.0,10.0,64,0.00,,OVC055,0.00,VWS V14.01,2013-11-13 05:36:00,
2013-11-13 00:41:00,25.1,15.0,30.51,North,360,4.0,10.0,65,0.00,,OVC055,0.00,VWS V14.01,2013-11-13 05:41:00,
2013-11-13 00:46:00,25.1,14.6,30.51,NE,40,3.0,10.0,64,0.00,,OVC055,0.00,VWS V14.01,2013-11-13 05:46:00,
2013-11-13 00:51:00,25.2,14.8,30.51,ENE,57,2.0,10.0,64,0.00,,OVC055,0.00,VWS V14.01,2013-11-13 05:51:00,
2013-11-13 00:56:00,25.2,14.8,30.51,ENE,63,2.0,10.0,64,0.00,,OVC055,0.00,VWS V14.01,2013-11-13 05:56:00,
2013-11-13 01:00:00,25.2,14.8,30.50,ENE,61,3.0,10.0,64,0.00,,OVC055,0.00,VWS V14.01,2013-11-13 06:00:00,
2013-11-13 01:01:00,25.3,14.8,30.51,NE,34,1.0,5.0,64,0.00,,OVC055,0.00,VWS V14.01,2013-11-13 06:01:00,
2013-11-13 01:06:00,25.2,14.8,30.51,ENE,59,1.0,5.0,64,0.00,,OVC055,0.00,VWS V14.01,2013-11-13 06:06:00,
2013-11-13 01:11:00,25.1,14.6,30.51,NE,34,0.0,5.0,64,0.00,,OVC055,0.00,VWS V14.01,2013-11-13 06:11:00,
2013-11-13 01:16:00,25.1,15.0,30.51,ENE,57,0.0,5.0,65,0.00,,OVC055,0.00,VWS V14.01,2013-11-13 06:16:00,
2013-11-13 01:21:00,24.9,14.8,30.51,NE,46,2.0,5.0,65,0.00,,OVC055,0.00,VWS V14.01,2013-11-13 06:21:00,
2013-11-13 01:26:00,24.9,14.5,30.51,West,275,2.0,5.0,64,0.00,,OVC055,0.00,VWS V14.01,2013-11-13 06:26:00,
2013-11-13 01:30:00,24.9,14.8,30.50,NNE,33,1.0,5.0,65,0.00,,OVC055,0.00,VWS V14.01,2013-11-13 06:30:00,
2013-11-13 01:31:00,25.0,14.6,30.51,NNE,20,1.0,5.0,64,0.00,,OVC055,0.00,VWS V14.01,2013-11-13 06:31:00,
2013-11-13 01:36:00,25.2,14.4,30.51,NE,38,2.0,8.0,63,0.00,,OVC055,0.00,VWS V14.01,2013-11-13 06:36:00,
2013-11-13 01:41:00,25.2,14.4,30.51,NE,35,3.0,8.0,63,0.00,,OVC055,0.00,VWS V14.01,2013-11-13 06:41:00,
2013-11-13 01:46:00,25.0,14.6,30.51,NNE,28,5.0,8.0,64,0.00,,OVC055,0.00,VWS V14.01,2013-11-13 06:46:00,
2013-11-13 01:51:00,24.9,14.5,30.50,NNE,13,5.0,8.0,64,0.00,,OVC055,0.00,VWS V14.01,2013-11-13 06:51:00,
2013-11-13 01:56:00,25.1,14.3,30.51,NNE,20,6.0,12.0,63,0.00,,OVC055,0.00,VWS V14.01,2013-11-13 06:56:00,
2013-11-13 02:00:00,25.1,14.3,30.51,NE,42,4.0,12.0,63,0.00,,OVC055,0.00,VWS V14.01,2013-11-13 07:00:00,
2013-11-13 02:01:00,25.2,14.0,30.51,NE,49,1.0,6.0,62,0.00,,OVC055,0.00,VWS V14.01,2013-11-13 07:01:00,
2013-11-13 02:06:00,25.2,14.4,30.51,NE,43,2.0,6.0,63,0.00,,OVC055,0.00,VWS V14.01,2013-11-13 07:06:00,
2013-11-13 02:11:00,24.9,14.1,30.51,NNE,24,2.0,7.0,63,0.00,,OVC055,0.00,VWS V14.01,2013-11-13 07:11:00,
2013-11-13 02:16:00,24.8,14.0,30.51,NNE,20,2.0,7.0,63,0.00,,OVC055,0.00,VWS V14.01,2013-11-13 07:16:00,
2013-11-13 02:21:00,24.9,14.1,30.51,ENE,63,3.0,7.0,63,0.00,,OVC055,0.00,VWS V14.01,2013-11-13 07:21:00,
2013-11-13 02:26:00,24.9,14.5,30.51,East,94,3.0,7.0,64,0.00,,OVC055,0.00,VWS V14.01,2013-11-13 07:26:00,
2013-11-13 02:30:00,24.8,14.0,30.52,NE,54,0.0,7.0,63,0.00,,OVC055,0.00,VWS V14.01,2013-11-13 07:30:00,
2013-11-13 02:31:00,24.8,14.4,30.51,NNE,26,1.0,3.0,64,0.00,,OVC055,0.00,VWS V14.01,2013-11-13 07:31:00,
2013-11-13 02:36:00,24.8,14.4,30.51,North,5,1.0,5.0,64,0.00,,OVC055,0.00,VWS V14.01,2013-11-13 07:36:00,
2013-11-13 02:41:00,24.7,14.3,30.52,ENE,58,2.0,5.0,64,0.00,,OVC055,0.00,VWS V14.01,2013-11-13 07:41:00,
2013-11-13 02:46:00,24.7,14.3,30.52,NE,44,4.0,5.0,64,0.00,,OVC055,0.00,VWS V14.01,2013-11-13 07:46:00,
2013-11-13 02:51:00,24.9,14.1,30.52,NE,39,2.0,5.0,63,0.00,,OVC055,0.00,VWS V14.01,2013-11-13 07:51:00,
2013-11-13 02:56:00,24.9,14.1,30.52,NE,39,1.0,5.0,63,0.00,,OVC055,0.00,VWS V14.01,2013-11-13 07:56:00,
2013-11-13 03:00:00,24.9,14.1,30.52,NE,39,2.0,5.0,63,0.00,,OVC055,0.00,VWS V14.01,2013-11-13 08:00:00,
2013-11-13 03:01:00,24.9,14.1,30.52,NE,39,0.0,2.0,63,0.00,,OVC055,0.00,VWS V14.01,2013-11-13 08:01:00,
2013-11-13 03:06:00,24.7,14.3,30.52,NE,49,2.0,4.0,64,0.00,,OVC055,0.00,VWS V14.01,2013-11-13 08:06:00,
2013-11-13 03:11:00,24.6,14.2,30.52,NE,49,4.0,4.0,64,0.00,,OVC055,0.00,VWS V14.01,2013-11-13 08:11:00,
2013-11-13 03:16:00,24.5,14.4,30.52,NE,49,2.0,4.0,65,0.00,,OVC055,0.00,VWS V14.01,2013-11-13 08:16:00,
2013-11-13 03:21:00,24.4,14.3,30.52,NE,49,2.0,4.0,65,0.00,,OVC055,0.00,VWS V14.01,2013-11-13 08:21:00,
2013-11-13 03:26:00,24.4,14.3,30.52,NE,48,2.0,5.0,65,0.00,,OVC055,0.00,VWS V14.01,2013-11-13 08:26:00,
2013-11-13 03:30:00,24.4,14.3,30.52,NE,49,3.0,5.0,65,0.00,,OVC055,0.00,VWS V14.01,2013-11-13 08:30:00,
2013-11-13 03:31:00,24.4,14.7,30.52,NE,50,3.0,4.0,66,0.00,,OVC055,0.00,VWS V14.01,2013-11-13 08:31:00,
2013-11-13 03:35:00,24.4,14.7,30.52,NE,52,2.0,6.0,66,0.00,,OVC055,0.00,VWS V14.01,2013-11-13 08:35:00,
2013-11-13 03:40:00,24.5,14.4,30.53,NE,55,3.0,6.0,65,0.00,,OVC055,0.00,VWS V14.01,2013-11-13 08:40:00,
2013-11-13 03:45:00,24.5,14.8,30.53,NE,53,2.0,6.0,66,0.00,,OVC055,0.00,VWS V14.01,2013-11-13 08:45:00,
2013-11-13 03:50:00,24.4,14.3,30.53,NE,41,1.0,6.0,65,0.00,,OVC055,0.00,VWS V14.01,2013-11-13 08:50:00,
2013-11-13 03:55:00,24.4,14.7,30.53,NE,41,1.0,6.0,66,0.00,,OVC055,0.00,VWS V14.01,2013-11-13 08:55:00,
2013-11-13 04:00:00,24.3,14.9,30.53,NE,41,0.0,1.0,67,0.00,,OVC055,0.00,VWS V14.01,2013-11-13 09:00:00,
2013-11-13 04:05:00,24.2,14.5,30.53,NE,42,2.0,4.0,66,0.00,,OVC055,0.00,VWS V14.01,2013-11-13 09:05:00,
2013-11-13 04:10:00,24.2,14.8,30.53,NE,42,0.0,4.0,67,0.00,,OVC055,0.00,VWS V14.01,2013-11-13 09:10:00,
2013-11-13 04:15:00,23.9,14.9,30.52,NE,42,1.0,4.0,68,0.00,,OVC055,0.00,VWS V14.01,2013-11-13 09:15:00,
2013-11-13 04:20:00,23.8,15.1,30.52,NE,42,0.0,4.0,69,0.00,,OVC055,0.00,VWS V14.01,2013-11-13 09:20:00,
2013-11-13 04:25:00,23.6,14.6,30.52,NE,42,0.0,4.0,68,0.00,,OVC055,0.00,VWS V14.01,2013-11-13 09:25:00,
2013-11-13 04:30:00,23.5,14.8,30.52,NE,42,1.0,1.0,69,0.00,,OVC055,0.00,VWS V14.01,2013-11-13 09:30:00,
2013-11-13 04:35:00,23.5,14.5,30.52,NE,42,0.0,2.0,68,0.00,,OVC055,0.00,VWS V14.01,2013-11-13 09:35:00,
2013-11-13 04:40:00,23.5,14.5,30.52,NE,40,3.0,3.0,68,0.00,,OVC055,0.00,VWS V14.01,2013-11-13 09:40:00,
2013-11-13 04:45:00,23.6,14.3,30.52,NE,38,3.0,5.0,67,0.00,,OVC055,0.00,VWS V14.01,2013-11-13 09:45:00,
2013-11-13 04:50:00,23.7,14.4,30.52,NE,44,0.0,6.0,67,0.00,,OVC055,0.00,VWS V14.01,2013-11-13 09:50:00,
2013-11-13 04:55:00,23.8,14.5,30.52,ENE,58,3.0,6.0,67,0.00,,OVC055,0.00,VWS V14.01,2013-11-13 09:55:00,
2013-11-13 05:00:00,23.9,14.6,30.53,NE,51,3.0,4.0,67,0.00,,OVC055,0.00,VWS V14.01,2013-11-13 10:00:00,
2013-11-13 05:05:00,24.0,14.3,30.53,NE,54,4.0,5.0,66,0.00,,OVC055,0.00,VWS V14.01,2013-11-13 10:05:00,
2013-11-13 05:10:00,24.0,14.6,30.53,ENE,63,2.0,5.0,67,0.00,,OVC055,0.00,VWS V14.01,2013-11-13 10:10:00,
2013-11-13 05:15:00,23.9,14.9,30.53,ENE,59,1.0,7.0,68,0.00,,OVC055,0.00,VWS V14.01,2013-11-13 10:15:00,
2013-11-13 05:20:00,23.8,14.8,30.53,NE,48,3.0,7.0,68,0.00,,OVC055,0.00,VWS V14.01,2013-11-13 10:20:00,
2013-11-13 05:25:00,23.6,14.9,30.53,NE,51,2.0,7.0,69,0.00,,OVC055,0.00,VWS V14.01,2013-11-13 10:25:00,
2013-11-13 05:30:00,23.6,14.9,30.53,NNE,18,2.0,5.0,69,0.00,,OVC055,0.00,VWS V14.01,2013-11-13 10:30:00,
2013-11-13 05:35:00,23.5,14.8,30.52,ENE,66,2.0,5.0,69,0.00,,OVC055,0.00,VWS V14.01,2013-11-13 10:35:00,
2013-11-13 05:40:00,23.3,15.0,30.53,ENE,60,2.0,5.0,70,0.00,,OVC055,0.00,VWS V14.01,2013-11-13 10:40:00,
2013-11-13 05:45:00,23.2,14.6,30.53,NE,51,2.0,5.0,69,0.00,,OVC055,0.00,VWS V14.01,2013-11-13 10:45:00,
2013-11-13 05:50:00,23.2,14.6,30.53,NE,46,0.0,5.0,69,0.00,,OVC055,0.00,VWS V14.01,2013-11-13 10:50:00,
2013-11-13 05:55:00,23.1,14.8,30.53,NE,46,0.0,5.0,70,0.00,,OVC055,0.00,VWS V14.01,2013-11-13 10:55:00,
2013-11-13 06:00:00,22.9,14.6,30.53,NE,46,1.0,1.0,70,0.00,,OVC055,0.00,VWS V14.01,2013-11-13 11:00:00,
2013-11-13 06:05:00,22.8,14.8,30.53,NE,46,0.0,2.0,71,0.00,,OVC055,0.00,VWS V14.01,2013-11-13 11:05:00,
2013-11-13 06:10:00,22.5,14.9,30.53,NE,46,0.0,2.0,72,0.00,,OVC055,0.00,VWS V14.01,2013-11-13 11:10:00,
2013-11-13 06:15:00,22.1,14.8,30.53,NE,46,0.0,2.0,73,0.00,,OVC055,0.00,VWS V14.01,2013-11-13 11:15:00,
2013-11-13 06:20:00,21.7,14.7,30.54,NE,46,0.0,2.0,74,0.00,,OVC055,0.00,VWS V14.01,2013-11-13 11:20:00,
2013-11-13 06:25:00,21.4,14.4,30.54,NE,46,0.0,2.0,74,0.00,,OVC055,0.00,VWS V14.01,2013-11-13 11:25:00,
2013-11-13 06:30:00,21.3,14.6,30.54,NE,46,1.0,2.0,75,0.00,,OVC055,0.00,VWS V14.01,2013-11-13 11:30:00,
2013-11-13 06:35:00,21.2,14.5,30.55,NE,46,0.0,2.0,75,0.00,,OVC055,0.00,VWS V14.01,2013-11-13 11:35:00,
2013-11-13 06:40:00,20.9,14.5,30.55,NE,46,0.0,2.0,76,0.00,,OVC055,0.00,VWS V14.01,2013-11-13 11:40:00,
2013-11-13 06:45:00,20.7,14.4,30.55,NE,46,1.0,2.0,76,0.00,,OVC055,0.00,VWS V14.01,2013-11-13 11:45:00,
2013-11-13 06:50:00,20.6,14.6,30.55,NE,46,1.0,2.0,77,0.00,,OVC055,0.00,VWS V14.01,2013-11-13 11:50:00,
2013-11-13 06:55:00,20.6,14.6,30.55,NE,46,0.0,2.0,77,0.00,,OVC055,0.00,VWS V14.01,2013-11-13 11:55:00,
2013-11-13 07:00:00,20.6,14.6,30.55,NE,46,0.0,1.0,77,0.00,,OVC055,0.00,VWS V14.01,2013-11-13 12:00:00,
2013-11-13 07:05:00,20.6,14.6,30.55,NE,46,0.0,1.0,77,0.00,,OVC055,0.00,VWS V14.01,2013-11-13 12:05:00,
2013-11-13 07:10:00,20.6,14.6,30.56,NE,46,0.0,1.0,77,0.00,,OVC055,0.00,VWS V14.01,2013-11-13 12:10:00,
2013-11-13 07:15:00,20.6,14.6,30.56,NE,46,0.0,1.0,77,0.00,,OVC055,0.00,VWS V14.01,2013-11-13 12:15:00,
2013-11-13 07:20:00,20.6,14.6,30.56,NE,46,0.0,1.0,77,0.00,,OVC055,0.00,VWS V14.01,2013-11-13 12:20:00,
2013-11-13 07:25:00,20.5,14.7,30.56,NE,46,1.0,1.0,78,0.00,,OVC055,0.00,VWS V14.01,2013-11-13 12:25:00,
2013-11-13 07:30:00,20.5,14.4,30.56,NE,46,0.0,1.0,77,0.00,,OVC055,0.00,VWS V14.01,2013-11-13 12:30:00,
2013-11-13 07:35:00,20.6,14.6,30.56,NE,46,0.0,1.0,77,0.00,,OVC055,0.00,VWS V14.01,2013-11-13 12:35:00,
2013-11-13 07:40:00,20.7,14.4,30.56,NE,46,0.0,1.0,76,0.00,,OVC055,0.00,VWS V14.01,2013-11-13 12:40:00,
2013-11-13 07:45:00,20.8,14.4,30.57,NE,46,0.0,1.0,76,0.00,,OVC055,0.00,VWS V14.01,2013-11-13 12:45:00,
2013-11-13 07:50:00,20.9,14.2,30.57,NE,46,0.0,1.0,75,0.00,,OVC055,0.00,VWS V14.01,2013-11-13 12:50:00,
2013-11-13 07:55:00,21.1,14.4,30.57,NE,46,0.0,1.0,75,0.00,,OVC055,0.00,VWS V14.01,2013-11-13 12:55:00,
2013-11-13 08:00:00,21.4,14.4,30.57,NE,46,0.0,0.0,74,0.00,,OVC055,0.00,VWS V14.01,2013-11-13 13:00:00,
2013-11-13 08:05:00,21.8,14.8,30.57,NE,46,0.0,1.0,74,0.00,,OVC055,0.00,VWS V14.01,2013-11-13 13:05:00,
2013-11-13 08:10:00,22.1,14.8,30.58,NE,46,0.0,1.0,73,0.00,,OVC055,0.00,VWS V14.01,2013-11-13 13:10:00,
2013-11-13 08:15:00,22.3,14.7,30.58,NE,46,0.0,1.0,72,0.00,,OVC055,0.00,VWS V14.01,2013-11-13 13:15:00,
2013-11-13 08:20:00,22.4,14.4,30.58,NE,46,0.0,1.0,71,0.00,,OVC055,0.00,VWS V14.01,2013-11-13 13:20:00,
2013-11-13 08:25:00,22.7,14.7,30.58,NE,46,0.0,1.0,71,0.00,,OVC055,0.00,VWS V14.01,2013-11-13 13:25:00,
2013-11-13 08:30:00,23.1,14.8,30.58,NE,46,0.0,1.0,70,0.00,,OVC055,0.00,VWS V14.01,2013-11-13 13:30:00,
2013-11-13 08:35:00,23.6,15.3,30.58,NE,46,0.0,1.0,70,0.00,,OVC055,0.00,VWS V14.01,2013-11-13 13:35:00,
2013-11-13 08:40:00,24.0,14.3,30.58,NE,46,0.0,2.0,66,0.00,,OVC055,0.00,VWS V14.01,2013-11-13 13:40:00,
2013-11-13 08:45:00,24.6,14.2,30.58,NE,46,0.0,2.0,64,0.00,,OVC055,0.00,VWS V14.01,2013-11-13 13:45:00,
2013-11-13 08:50:00,25.2,14.4,30.58,NE,46,0.0,2.0,63,0.00,,OVC055,0.00,VWS V14.01,2013-11-13 13:50:00,
2013-11-13 08:55:00,25.7,14.5,30.59,NE,50,0.0,2.0,62,0.00,,OVC055,0.00,VWS V14.01,2013-11-13 13:55:00,
2013-11-13 09:00:00,26.2,13.8,30.59,NE,50,0.0,1.0,59,0.00,,OVC055,0.00,VWS V14.01,2013-11-13 14:00:00,
2013-11-13 09:05:00,26.9,14.1,30.59,NE,49,1.0,2.0,58,0.00,,OVC055,0.00,VWS V14.01,2013-11-13 14:05:00,
2013-11-13 09:10:00,27.7,13.6,30.59,ENE,65,0.0,4.0,55,0.00,,OVC055,0.00,VWS V14.01,2013-11-13 14:10:00,
2013-11-13 09:15:00,28.3,13.8,30.59,ENE,65,0.0,4.0,54,0.00,,OVC055,0.00,VWS V14.01,2013-11-13 14:15:00,
2013-11-13 09:20:00,28.7,14.6,30.59,NE,49,0.0,4.0,55,0.00,,OVC055,0.00,VWS V14.01,2013-11-13 14:20:00,
2013-11-13 09:25:00,29.1,13.7,30.59,ENE,60,0.0,4.0,52,0.00,,OVC055,0.00,VWS V14.01,2013-11-13 14:25:00,
2013-11-13 09:30:00,29.6,14.1,30.59,NE,51,0.0,1.0,52,0.00,,OVC055,0.00,VWS V14.01,2013-11-13 14:30:00,
2013-11-13 09:35:00,29.9,13.1,30.58,East,84,1.0,1.0,49,0.00,,OVC055,0.00,VWS V14.01,2013-11-13 14:35:00,
2013-11-13 09:40:00,30.4,13.1,30.59,SE,136,0.0,2.0,48,0.00,,OVC055,0.00,VWS V14.01,2013-11-13 14:40:00,
2013-11-13 09:45:00,31.0,12.2,30.59,NE,51,2.0,3.0,45,0.00,,OVC055,0.00,VWS V14.01,2013-11-13 14:45:00,
2013-11-13 09:50:00,31.8,12.4,30.59,ENE,57,0.0,3.0,44,0.00,,OVC055,0.00,VWS V14.01,2013-11-13 14:50:00,
2013-11-13 09:55:00,32.7,11.1,30.59,ENE,61,1.0,6.0,40,0.00,,OVC055,0.00,VWS V14.01,2013-11-13 14:55:00,
2013-11-13 10:00:00,33.3,10.4,30.59,ENE,62,1.0,2.0,38,0.00,,OVC055,0.00,VWS V14.01,2013-11-13 15:00:00,
2013-11-13 10:05:00,33.9,10.4,30.59,ENE,63,3.0,4.0,37,0.00,,OVC055,0.00,VWS V14.01,2013-11-13 15:05:00,
2013-11-13 10:10:00,34.4,9.6,30.59,ENE,69,2.0,4.0,35,0.00,,OVC055,0.00,VWS V14.01,2013-11-13 15:10:00,
2013-11-13 10:15:00,34.8,9.9,30.59,NE,55,1.0,5.0,35,0.00,,OVC055,0.00,VWS V14.01,2013-11-13 15:15:00,
2013-11-13 10:19:00,35.6,10.7,30.59,NE,55,0.0,5.0,35,0.00,,OVC055,0.00,VWS V14.01,2013-11-13 15:19:00,
2013-11-13 10:24:00,36.1,10.5,30.59,NNE,26,0.0,5.0,34,0.00,,OVC055,0.00,VWS V14.01,2013-11-13 15:24:00,
2013-11-13 10:29:00,36.9,9.8,30.59,NE,40,1.0,4.0,32,0.00,,OVC055,0.00,VWS V14.01,2013-11-13 15:29:00,
2013-11-13 10:30:00,36.7,11.0,30.59,ENE,59,0.0,5.0,34,0.00,,OVC055,0.00,VWS V14.01,2013-11-13 15:30:00,
2013-11-13 10:34:00,37.3,10.9,30.60,East,101,0.0,4.0,33,0.00,,OVC055,0.00,VWS V14.01,2013-11-13 15:34:00,
2013-11-13 10:39:00,37.9,10.0,30.59,South,178,2.0,4.0,31,0.00,,OVC055,0.00,VWS V14.01,2013-11-13 15:39:00,
2013-11-13 10:44:00,38.6,12.0,30.60,NE,46,0.0,4.0,33,0.00,,OVC055,0.00,VWS V14.01,2013-11-13 15:44:00,
2013-11-13 10:49:00,39.1,10.3,30.59,NE,34,2.0,4.0,30,0.00,,OVC055,0.00,VWS V14.01,2013-11-13 15:49:00,
2013-11-13 10:54:00,39.6,10.7,30.60,ENE,78,0.0,4.0,30,0.00,,OVC055,0.00,VWS V14.01,2013-11-13 15:54:00,
2013-11-13 10:59:00,40.0,8.7,30.60,East,94,2.0,2.0,27,0.00,,OVC055,0.00,VWS V14.01,2013-11-13 15:59:00,
2013-11-13 11:00:00,39.9,10.2,30.60,East,80,0.0,4.0,29,0.00,,OVC055,0.00,VWS V14.01,2013-11-13 16:00:00,
2013-11-13 11:04:00,40.2,10.5,30.60,SSW,192,0.0,3.0,29,0.00,,OVC055,0.00,VWS V14.01,2013-11-13 16:04:00,
2013-11-13 11:09:00,40.4,8.2,30.60,NNE,24,2.0,3.0,26,0.00,,OVC055,0.00,VWS V14.01,2013-11-13 16:09:00,
2013-11-13 11:14:00,39.9,9.4,30.60,NE,40,1.0,5.0,28,0.00,,OVC055,0.00,VWS V14.01,2013-11-13 16:14:00,
2013-11-13 11:19:00,40.3,8.1,30.60,ENE,59,1.0,5.0,26,0.00,,OVC055,0.00,VWS V14.01,2013-11-13 16:19:00,
2013-11-13 11:24:00,40.7,10.1,30.59,ENE,59,0.0,5.0,28,0.00,,OVC055,0.00,VWS V14.01,2013-11-13 16:24:00,
2013-11-13 11:29:00,41.1,9.7,30.60,ENE,61,1.0,3.0,27,0.00,,OVC055,0.00,VWS V14.01,2013-11-13 16:29:00,
2013-11-13 11:30:00,41.1,11.3,30.60,ENE,59,3.0,5.0,29,0.00,,OVC055,0.00,VWS V14.01,2013-11-13 16:30:00,
2013-11-13 11:34:00,41.0,7.9,30.60,ENE,57,1.0,4.0,25,0.00,,OVC055,0.00,VWS V14.01,2013-11-13 16:34:00,
2013-11-13 11:39:00,41.2,8.9,30.60,ENE,57,1.0,4.0,26,0.00,,OVC055,0.00,VWS V14.01,2013-11-13 16:39:00,
2013-11-13 11:44:00,41.8,7.7,30.59,ENE,59,2.0,4.0,24,0.00,,OVC055,0.00,VWS V14.01,2013-11-13 16:44:00,
2013-11-13 11:49:00,41.8,10.3,30.59,NE,34,0.0,6.0,27,0.00,,OVC055,0.00,VWS V14.01,2013-11-13 16:49:00,
2013-11-13 11:54:00,42.5,9.2,30.59,NNE,26,4.0,6.0,25,0.00,,OVC055,0.00,VWS V14.01,2013-11-13 16:54:00,
2013-11-13 11:59:00,42.8,8.5,30.59,NNE,24,5.0,6.0,24,0.00,,OVC055,0.00,VWS V14.01,2013-11-13 16:59:00,
2013-11-13 12:00:00,42.8,8.5,30.59,NE,44,1.0,6.0,24,0.00,,OVC055,0.00,VWS V14.01,2013-11-13 17:00:00,
2013-11-13 12:04:00,42.6,8.4,30.58,NNE,24,1.0,9.0,24,0.00,,OVC055,0.00,VWS V14.01,2013-11-13 17:04:00,
2013-11-13 12:09:00,43.1,9.7,30.58,NNE,24,0.0,9.0,25,0.00,,OVC055,0.00,VWS V14.01,2013-11-13 17:09:00,
2013-11-13 12:14:00,43.9,10.4,30.57,ENE,59,0.0,9.0,25,0.00,,OVC055,0.00,VWS V14.01,2013-11-13 17:14:00,
2013-11-13 12:19:00,44.1,8.7,30.57,NNE,32,4.0,9.0,23,0.00,,OVC055,0.00,VWS V14.01,2013-11-13 17:19:00,
2013-11-13 12:24:00,43.8,7.4,30.57,NE,44,0.0,9.0,22,0.00,,OVC055,0.00,VWS V14.01,2013-11-13 17:24:00,
2013-11-13 12:29:00,44.4,9.9,30.56,NE,44,5.0,5.0,24,0.00,,OVC055,0.00,VWS V14.01,2013-11-13 17:29:00,
2013-11-13 12:30:00,44.2,9.7,30.56,NE,40,2.0,9.0,24,0.00,,OVC055,0.00,VWS V14.01,2013-11-13 17:30:00,
2013-11-13 12:34:00,44.7,11.1,30.56,NE,45,2.0,5.0,25,0.00,,OVC055,0.00,VWS V14.01,2013-11-13 17:34:00,
2013-11-13 12:39:00,45.1,9.5,30.56,NNW,347,2.0,7.0,23,0.00,,OVC055,0.00,VWS V14.01,2013-11-13 17:39:00,
2013-11-13 12:44:00,45.4,10.7,30.55,NNE,20,2.0,7.0,24,0.00,,OVC055,0.00,VWS V14.01,2013-11-13 17:44:00,
2013-11-13 12:49:00,45.7,11.0,30.55,NE,46,3.0,8.0,24,0.00,,OVC055,0.00,VWS V14.01,2013-11-13 17:49:00,
2013-11-13 12:54:00,45.7,11.0,30.55,ENE,57,1.0,8.0,24,0.00,,OVC055,0.00,VWS V14.01,2013-11-13 17:54:00,
2013-11-13 12:59:00,46.0,13.9,30.55,NE,52,1.0,2.0,27,0.00,,OVC055,0.00,VWS V14.01,2013-11-13 17:59:00,
2013-11-13 13:00:00,46.0,12.2,30.55,NE,52,1.0,8.0,25,0.00,,OVC055,0.00,VWS V14.01,2013-11-13 18:00:00,
2013-11-13 13:04:00,46.3,11.5,30.55,NE,49,0.0,2.0,24,0.00,,OVC055,0.00,VWS V14.01,2013-11-13 18:04:00,
2013-11-13 13:09:00,46.4,12.5,30.54,NE,49,0.0,2.0,25,0.00,,OVC055,0.00,VWS V14.01,2013-11-13 18:09:00,
2013-11-13 13:14:00,46.4,14.2,30.55,ENE,59,4.0,5.0,27,0.00,,OVC055,0.00,VWS V14.01,2013-11-13 18:14:00,
2013-11-13 13:19:00,46.3,13.3,30.55,NNE,17,4.0,7.0,26,0.00,,OVC055,0.00,VWS V14.01,2013-11-13 18:19:00,
2013-11-13 13:24:00,46.2,11.4,30.54,NNE,32,4.0,7.0,24,0.00,,OVC055,0.00,VWS V14.01,2013-11-13 18:24:00,
2013-11-13 13:29:00,46.2,13.2,30.54,North,5,5.0,6.0,26,0.00,,OVC055,0.00,VWS V14.01,2013-11-13 18:29:00,
2013-11-13 13:30:00,46.2,13.2,30.54,North,5,3.0,8.0,26,0.00,,OVC055,0.00,VWS V14.01,2013-11-13 18:30:00,
2013-11-13 13:34:00,46.3,13.3,30.54,NE,48,2.0,6.0,26,0.00,,OVC055,0.00,VWS V14.01,2013-11-13 18:34:00,
2013-11-13 13:39:00,46.4,13.4,30.54,NE,53,3.0,6.0,26,0.00,,OVC055,0.00,VWS V14.01,2013-11-13 18:39:00,
2013-11-13 13:44:00,46.2,13.2,30.54,NE,54,3.0,6.0,26,0.00,,OVC055,0.00,VWS V14.01,2013-11-13 18:44:00,
2013-11-13 13:49:00,46.3,15.8,30.53,NE,52,2.0,6.0,29,0.00,,OVC055,0.00,VWS V14.01,2013-11-13 18:49:00,
2013-11-13 13:54:00,46.4,12.5,30.53,ENE,57,1.0,6.0,25,0.00,,OVC055,0.00,VWS V14.01,2013-11-13 18:54:00,
2013-11-13 13:59:00,46.4,14.2,30.53,ENE,57,0.0,0.0,27,0.00,,OVC055,0.00,VWS V14.01,2013-11-13 18:59:00,
2013-11-13 14:00:00,46.4,14.2,30.53,ENE,57,0.0,6.0,27,0.00,,OVC055,0.00,VWS V14.01,2013-11-13 19:00:00,
2013-11-13 14:04:00,46.5,16.0,30.53,ENE,57,0.0,1.0,29,0.00,,OVC055,0.00,VWS V14.01,2013-11-13 19:04:00,
2013-11-13 14:09:00,46.6,13.6,30.53,ENE,57,0.0,1.0,26,0.00,,OVC055,0.00,VWS V14.01,2013-11-13 19:09:00,
2013-11-13 14:14:00,46.6,13.6,30.52,ENE,57,0.0,1.0,26,0.00,,OVC055,0.00,VWS V14.01,2013-11-13 19:14:00,
2013-11-13 14:19:00,46.7,15.3,30.52,ENE,57,0.0,1.0,28,0.00,,OVC055,0.00,VWS V14.01,2013-11-13 19:19:00,
2013-11-13 14:24:00,46.7,14.5,30.52,ENE,59,0.0,2.0,27,0.00,,OVC055,0.00,VWS V14.01,2013-11-13 19:24:00,
2013-11-13 14:29:00,46.9,14.7,30.52,ENE,61,0.0,2.0,27,0.00,,OVC055,0.00,VWS V14.01,2013-11-13 19:29:00,
2013-11-13 14:30:00,46.9,14.7,30.52,ENE,59,0.0,2.0,27,0.00,,OVC055,0.00,VWS V14.01,2013-11-13 19:30:00,
2013-11-13 14:34:00,47.2,15.8,30.52,East,89,2.0,5.0,28,0.00,,OVC055,0.00,VWS V14.01,2013-11-13 19:34:00,
2013-11-13 14:39:00,47.3,13.3,30.52,ENE,64,0.0,5.0,25,0.00,,OVC055,0.00,VWS V14.01,2013-11-13 19:39:00,
2013-11-13 14:44:00,47.3,14.2,30.52,NE,47,4.0,5.0,26,0.00,,OVC055,0.00,VWS V14.01,2013-11-13 19:44:00,
2013-11-13 14:49:00,47.2,14.1,30.52,NE,56,3.0,5.0,26,0.00,,OVC055,0.00,VWS V14.01,2013-11-13 19:49:00,
2013-11-13 14:54:00,47.3,15.0,30.52,ENE,57,0.0,5.0,27,0.00,,OVC055,0.00,VWS V14.01,2013-11-13 19:54:00,
2013-11-13 14:59:00,47.1,13.1,30.52,NE,52,0.0,0.0,25,0.00,,OVC055,0.00,VWS V14.01,2013-11-13 19:59:00,
2013-11-13 15:00:00,47.2,14.1,30.52,NE,52,0.0,5.0,26,0.00,,OVC055,0.00,VWS V14.01,2013-11-13 20:00:00,
2013-11-13 15:04:00,46.8,16.2,30.52,NE,53,1.0,1.0,29,0.00,,OVC055,0.00,VWS V14.01,2013-11-13 20:04:00,
2013-11-13 15:09:00,46.5,14.3,30.52,NE,53,1.0,2.0,27,0.00,,OVC055,0.00,VWS V14.01,2013-11-13 20:09:00,
2013-11-13 15:14:00,46.2,15.7,30.52,NE,53,0.0,2.0,29,0.00,,OVC055,0.00,VWS V14.01,2013-11-13 20:14:00,
2013-11-13 15:19:00,46.0,16.3,30.52,East,83,0.0,3.0,30,0.00,,OVC055,0.00,VWS V14.01,2013-11-13 20:19:00,
2013-11-13 15:24:00,45.7,16.1,30.52,East,83,0.0,3.0,30,0.00,,OVC055,0.00,VWS V14.01,2013-11-13 20:24:00,
2013-11-13 15:29:00,45.4,15.8,30.52,East,83,1.0,1.0,30,0.00,,OVC055,0.00,VWS V14.01,2013-11-13 20:29:00,
2013-11-13 15:30:00,45.5,15.9,30.52,East,83,0.0,3.0,30,0.00,,OVC055,0.00,VWS V14.01,2013-11-13 20:30:00,
2013-11-13 15:34:00,45.4,15.8,30.52,ENE,70,0.0,2.0,30,0.00,,OVC055,0.00,VWS V14.01,2013-11-13 20:34:00,
2013-11-13 15:39:00,45.4,15.8,30.52,NE,36,0.0,5.0,30,0.00,,OVC055,0.00,VWS V14.01,2013-11-13 20:39:00,
2013-11-13 15:44:00,45.2,14.9,30.52,NE,36,0.0,5.0,29,0.00,,OVC055,0.00,VWS V14.01,2013-11-13 20:44:00,
2013-11-13 15:49:00,45.0,15.4,30.52,NE,36,0.0,5.0,30,0.00,,OVC055,0.00,VWS V14.01,2013-11-13 20:49:00,
2013-11-13 15:54:00,44.6,15.1,30.52,NE,36,0.0,5.0,30,0.00,,OVC055,0.00,VWS V14.01,2013-11-13 20:54:00,
2013-11-13 15:59:00,44.7,14.4,30.52,NE,38,0.0,1.0,29,0.00,,OVC055,0.00,VWS V14.01,2013-11-13 20:59:00,
2013-11-13 16:00:00,44.6,13.5,30.52,NE,38,0.0,5.0,28,0.00,,OVC055,0.00,VWS V14.01,2013-11-13 21:00:00,
2013-11-13 16:04:00,44.5,15.0,30.52,NE,38,0.0,2.0,30,0.00,,OVC055,0.00,VWS V14.01,2013-11-13 21:04:00,
2013-11-13 16:09:00,44.2,14.8,30.52,NE,38,0.0,2.0,30,0.00,,OVC055,0.00,VWS V14.01,2013-11-13 21:09:00,
2013-11-13 16:14:00,43.9,15.2,30.52,NE,38,0.0,2.0,31,0.00,,OVC055,0.00,VWS V14.01,2013-11-13 21:14:00,
2013-11-13 16:19:00,43.6,15.0,30.53,NE,38,0.0,2.0,31,0.00,,OVC055,0.00,VWS V14.01,2013-11-13 21:19:00,
2013-11-13 16:24:00,43.5,14.9,30.53,NE,38,0.0,2.0,31,0.00,,OVC055,0.00,VWS V14.01,2013-11-13 21:24:00,
2013-11-13 16:29:00,43.3,15.4,30.53,NE,38,0.0,0.0,32,0.00,,OVC055,0.00,VWS V14.01,2013-11-13 21:29:00,
2013-11-13 16:30:00,43.4,15.5,30.53,NE,38,0.0,2.0,32,0.00,,OVC055,0.00,VWS V14.01,2013-11-13 21:30:00,
2013-11-13 16:34:00,43.1,15.3,30.53,NE,38,0.0,0.0,32,0.00,,OVC055,0.00,VWS V14.01,2013-11-13 21:34:00,
2013-11-13 16:39:00,42.8,14.3,30.53,NE,38,0.0,1.0,31,0.00,,OVC055,0.00,VWS V14.01,2013-11-13 21:39:00,
2013-11-13 16:44:00,42.6,14.8,30.53,NE,38,0.0,1.0,32,0.00,,OVC055,0.00,VWS V14.01,2013-11-13 21:44:00,
2013-11-13 16:49:00,42.3,14.6,30.53,NE,38,0.0,1.0,32,0.00,,OVC055,0.00,VWS V14.01,2013-11-13 21:49:00,
2013-11-13 16:54:00,42.0,15.0,30.53,NE,38,0.0,1.0,33,0.00,,OVC055,0.00,VWS V14.01,2013-11-13 21:54:00,
2013-11-13 16:59:00,41.6,14.6,30.53,NE,38,0.0,0.0,33,0.00,,OVC055,0.00,VWS V14.01,2013-11-13 21:59:00,
2013-11-13 17:00:00,41.7,14.0,30.53,NE,38,0.0,1.0,32,0.00,,OVC055,0.00,VWS V14.01,2013-11-13 22:00:00,
2013-11-13 17:04:00,41.4,13.8,30.53,NE,38,0.0,0.0,32,0.00,,OVC055,0.00,VWS V14.01,2013-11-13 22:04:00,
2013-11-13 17:09:00,41.1,14.9,30.54,NE,38,0.0,0.0,34,0.00,,OVC055,0.00,VWS V14.01,2013-11-13 22:09:00,
2013-11-13 17:14:00,40.8,14.6,30.54,NE,38,0.0,0.0,34,0.00,,OVC055,0.00,VWS V14.01,2013-11-13 22:14:00,
2013-11-13 17:19:00,40.7,14.5,30.54,NE,38,0.0,0.0,34,0.00,,OVC055,0.00,VWS V14.01,2013-11-13 22:19:00,
2013-11-13 17:24:00,40.5,14.4,30.54,NE,38,0.0,0.0,34,0.00,,OVC055,0.00,VWS V14.01,2013-11-13 22:24:00,
2013-11-13 17:29:00,40.2,14.8,30.55,NE,38,0.0,0.0,35,0.00,,OVC055,0.00,VWS V14.01,2013-11-13 22:29:00,
2013-11-13 17:30:00,40.2,14.8,30.55,NE,38,0.0,0.0,35,0.00,,OVC055,0.00,VWS V14.01,2013-11-13 22:30:00,
2013-11-13 17:34:00,39.9,15.1,30.54,North,5,0.0,3.0,36,0.00,,OVC055,0.00,VWS V14.01,2013-11-13 22:34:00,
2013-11-13 17:39:00,39.7,16.2,30.55,North,360,3.0,3.0,38,0.00,,OVC055,0.00,VWS V14.01,2013-11-13 22:39:00,
2013-11-13 17:44:00,39.6,16.1,30.55,North,360,0.0,3.0,38,0.00,,OVC055,0.00,VWS V14.01,2013-11-13 22:44:00,
2013-11-13 17:49:00,39.3,16.4,30.55,North,360,0.0,3.0,39,0.00,,OVC055,0.00,VWS V14.01,2013-11-13 22:49:00,
2013-11-13 17:54:00,38.9,16.1,30.55,North,360,0.0,3.0,39,0.00,,OVC055,0.00,VWS V14.01,2013-11-13 22:54:00,
2013-11-13 17:58:00,38.4,16.2,30.55,North,360,0.0,2.0,40,0.00,,OVC055,0.00,VWS V14.01,2013-11-13 22:58:00,
2013-11-13 18:00:00,38.6,16.4,30.55,North,360,0.0,3.0,40,0.00,,OVC055,0.00,VWS V14.01,2013-11-13 23:00:00,
2013-11-13 18:03:00,38.1,16.5,30.56,North,360,2.0,2.0,41,0.00,,OVC055,0.00,VWS V14.01,2013-11-13 23:03:00,
2013-11-13 18:08:00,37.9,16.3,30.56,North,355,2.0,4.0,41,0.00,,OVC055,0.00,VWS V14.01,2013-11-13 23:08:00,
2013-11-13 18:13:00,37.3,16.3,30.56,North,355,0.0,4.0,42,0.00,,OVC055,0.00,VWS V14.01,2013-11-13 23:13:00,
2013-11-13 18:18:00,36.8,16.4,30.56,North,355,0.0,4.0,43,0.00,,OVC055,0.00,VWS V14.01,2013-11-13 23:18:00,
2013-11-13 18:23:00,36.6,16.8,30.56,North,355,0.0,4.0,44,0.00,,OVC055,0.00,VWS V14.01,2013-11-13 23:23:00,
2013-11-13 18:28:00,36.3,16.5,30.56,North,355,0.0,0.0,44,0.00,,OVC055,0.00,VWS V14.01,2013-11-13 23:28:00,
2013-11-13 18:30:00,36.4,16.6,30.56,North,355,0.0,4.0,44,0.00,,OVC055,0.00,VWS V14.01,2013-11-13 23:30:00,
2013-11-13 18:33:00,36.2,16.9,30.56,North,355,0.0,0.0,45,0.00,,OVC055,0.00,VWS V14.01,2013-11-13 23:33:00,
2013-11-13 18:38:00,36.0,17.2,30.57,North,355,0.0,0.0,46,0.00,,OVC055,0.00,VWS V14.01,2013-11-13 23:38:00,
2013-11-13 18:43:00,35.6,17.9,30.57,North,355,0.0,0.0,48,0.00,,OVC055,0.00,VWS V14.01,2013-11-13 23:43:00,
2013-11-13 18:48:00,35.0,17.3,30.57,North,355,0.0,0.0,48,0.00,,OVC055,0.00,VWS V14.01,2013-11-13 23:48:00,
2013-11-13 18:53:00,34.5,18.2,30.57,North,355,0.0,0.0,51,0.00,,OVC055,0.00,VWS V14.01,2013-11-13 23:53:00,
2013-11-13 18:58:00,34.0,17.3,30.57,North,355,0.0,0.0,50,0.00,,OVC055,0.00,VWS V14.01,2013-11-13 23:58:00,
2013-11-13 19:00:00,34.1,17.4,30.57,North,355,0.0,0.0,50,0.00,,OVC055,0.00,VWS V14.01,2013-11-14 00:00:00,
2013-11-13 19:03:00,33.5,19.9,30.57,North,355,0.0,0.0,57,0.00,,OVC055,0.00,VWS V14.01,2013-11-14 00:03:00,
2013-11-13 19:08:00,33.2,17.9,30.57,North,355,0.0,0.0,53,0.00,,OVC055,0.00,VWS V14.01,2013-11-14 00:08:00,
2013-11-13 19:13:00,32.9,18.1,30.57,North,355,0.0,0.0,54,0.00,,OVC055,0.00,VWS V14.01,2013-11-14 00:13:00,
2013-11-13 19:18:00,32.6,18.2,30.57,North,355,0.0,0.0,55,0.00,,OVC055,0.00,VWS V14.01,2013-11-14 00:18:00,
2013-11-13 19:23:00,32.3,18.8,30.58,North,355,0.0,0.0,57,0.00,,OVC055,0.00,VWS V14.01,2013-11-14 00:23:00,
2013-11-13 19:28:00,31.7,18.2,30.58,North,355,0.0,0.0,57,0.00,,OVC055,0.00,VWS V14.01,2013-11-14 00:28:00,
2013-11-13 19:30:00,31.7,18.2,30.58,North,355,0.0,1.0,57,0.00,,OVC055,0.00,VWS V14.01,2013-11-14 00:30:00,
2013-11-13 19:33:00,31.4,17.9,30.57,North,355,0.0,1.0,57,0.00,,OVC055,0.00,VWS V14.01,2013-11-14 00:33:00,
2013-11-13 19:38:00,31.4,17.9,30.58,North,355,0.0,1.0,57,0.00,,OVC055,0.00,VWS V14.01,2013-11-14 00:38:00,
2013-11-13 19:43:00,31.4,18.7,30.58,North,355,0.0,1.0,59,0.00,,OVC055,0.00,VWS V14.01,2013-11-14 00:43:00,
2013-11-13 19:48:00,31.2,19.3,30.58,North,355,0.0,1.0,61,0.00,,OVC055,0.00,VWS V14.01,2013-11-14 00:48:00,
2013-11-13 19:53:00,30.6,21.0,30.58,North,355,0.0,1.0,67,0.00,,OVC055,0.00,VWS V14.01,2013-11-14 00:53:00,
2013-11-13 19:58:00,30.1,19.0,30.57,North,355,0.0,0.0,63,0.00,,OVC055,0.00,VWS V14.01,2013-11-14 00:58:00,
2013-11-13 20:00:00,30.2,18.8,30.57,North,355,0.0,1.0,62,0.00,,OVC055,0.00,VWS V14.01,2013-11-14 01:00:00,
2013-11-13 20:03:00,29.9,19.6,30.58,North,355,0.0,0.0,65,0.00,,OVC055,0.00,VWS V14.01,2013-11-14 01:03:00,
2013-11-13 20:08:00,29.5,18.5,30.58,North,355,0.0,0.0,63,0.00,,OVC055,0.00,VWS V14.01,2013-11-14 01:08:00,
2013-11-13 20:13:00,29.2,18.2,30.58,North,355,0.0,0.0,63,0.00,,OVC055,0.00,VWS V14.01,2013-11-14 01:13:00,
2013-11-13 20:18:00,29.0,18.7,30.58,North,355,0.0,0.0,65,0.00,,OVC055,0.00,VWS V14.01,2013-11-14 01:18:00,
2013-11-13 20:23:00,28.8,18.2,30.58,North,355,0.0,0.0,64,0.00,,OVC055,0.00,VWS V14.01,2013-11-14 01:23:00,
2013-11-13 20:28:00,28.7,19.5,30.58,North,355,0.0,0.0,68,0.00,,OVC055,0.00,VWS V14.01,2013-11-14 01:28:00,
2013-11-13 20:30:00,28.7,19.5,30.58,North,355,0.0,0.0,68,0.00,,OVC055,0.00,VWS V14.01,2013-11-14 01:30:00,
2013-11-13 20:33:00,28.5,19.0,30.58,North,355,0.0,0.0,67,0.00,,OVC055,0.00,VWS V14.01,2013-11-14 01:33:00,
2013-11-13 20:38:00,28.4,18.5,30.58,North,355,0.0,0.0,66,0.00,,OVC055,0.00,VWS V14.01,2013-11-14 01:38:00,
2013-11-13 20:43:00,28.3,18.8,30.58,North,355,0.0,0.0,67,0.00,,OVC055,0.00,VWS V14.01,2013-11-14 01:43:00,
2013-11-13 20:48:00,28.3,18.8,30.58,North,355,0.0,0.0,67,0.00,,OVC055,0.00,VWS V14.01,2013-11-14 01:48:00,
2013-11-13 20:53:00,28.1,18.6,30.58,North,355,0.0,0.0,67,0.00,,OVC055,0.00,VWS V14.01,2013-11-14 01:53:00,
2013-11-13 20:58:00,28.1,18.6,30.58,North,355,0.0,0.0,67,0.00,,OVC055,0.00,VWS V14.01,2013-11-14 01:58:00,
2013-11-13 21:00:00,28.1,18.6,30.58,North,355,0.0,0.0,67,0.00,,OVC055,0.00,VWS V14.01,2013-11-14 02:00:00,
2013-11-13 21:03:00,28.1,20.6,30.58,North,355,0.0,0.0,73,0.00,,OVC055,0.00,VWS V14.01,2013-11-14 02:03:00,
2013-11-13 21:08:00,28.0,19.8,30.58,North,355,0.0,0.0,71,0.00,,OVC055,0.00,VWS V14.01,2013-11-14 02:08:00,
2013-11-13 21:13:00,27.9,20.4,30.58,North,355,0.0,0.0,73,0.00,,OVC055,0.00,VWS V14.01,2013-11-14 02:13:00,
2013-11-13 21:18:00,27.7,19.5,30.58,North,355,0.0,0.0,71,0.00,,OVC055,0.00,VWS V14.01,2013-11-14 02:18:00,
2013-11-13 21:23:00,27.6,19.4,30.58,North,355,0.0,0.0,71,0.00,,OVC055,0.00,VWS V14.01,2013-11-14 02:23:00,
2013-11-13 21:28:00,27.6,19.4,30.58,North,355,0.0,0.0,71,0.00,,OVC055,0.00,VWS V14.01,2013-11-14 02:28:00,
2013-11-13 21:30:00,27.6,19.4,30.58,North,355,0.0,0.0,71,0.00,,OVC055,0.00,VWS V14.01,2013-11-14 02:30:00,
2013-11-13 21:33:00,27.5,20.0,30.58,North,355,0.0,0.0,73,0.00,,OVC055,0.00,VWS V14.01,2013-11-14 02:33:00,
2013-11-13 21:38:00,27.3,19.1,30.58,North,355,0.0,0.0,71,0.00,,OVC055,0.00,VWS V14.01,2013-11-14 02:38:00,
2013-11-13 21:43:00,27.2,19.4,30.58,North,355,0.0,0.0,72,0.00,,OVC055,0.00,VWS V14.01,2013-11-14 02:43:00,
2013-11-13 21:48:00,27.0,20.5,30.58,North,355,0.0,0.0,76,0.00,,OVC055,0.00,VWS V14.01,2013-11-14 02:48:00,
2013-11-13 21:53:00,26.6,20.7,30.58,North,355,0.0,1.0,78,0.00,,OVC055,0.00,VWS V14.01,2013-11-14 02:53:00,
2013-11-13 21:58:00,26.3,19.8,30.58,North,355,0.0,0.0,76,0.00,,OVC055,0.00,VWS V14.01,2013-11-14 02:58:00,
2013-11-13 22:00:00,26.3,19.8,30.58,North,355,0.0,1.0,76,0.00,,OVC055,0.00,VWS V14.01,2013-11-14 03:00:00,
2013-11-13 22:03:00,26.2,19.4,30.58,North,355,0.0,0.0,75,0.00,,OVC055,0.00,VWS V14.01,2013-11-14 03:03:00,
2013-11-13 22:08:00,26.1,19.6,30.58,North,355,0.0,0.0,76,0.00,,OVC055,0.00,VWS V14.01,2013-11-14 03:08:00,
2013-11-13 22:13:00,26.1,19.3,30.58,North,355,0.0,0.0,75,0.00,,OVC055,0.00,VWS V14.01,2013-11-14 03:13:00,
2013-11-13 22:18:00,26.2,20.0,30.58,North,355,0.0,0.0,77,0.00,,OVC055,0.00,VWS V14.01,2013-11-14 03:18:00,
2013-11-13 22:23:00,26.2,19.7,30.58,North,355,0.0,0.0,76,0.00,,OVC055,0.00,VWS V14.01,2013-11-14 03:23:00,
2013-11-13 22:28:00,26.1,19.3,30.58,North,355,0.0,0.0,75,0.00,,OVC055,0.00,VWS V14.01,2013-11-14 03:28:00,
2013-11-13 22:30:00,26.2,19.4,30.58,North,355,0.0,0.0,75,0.00,,OVC055,0.00,VWS V14.01,2013-11-14 03:30:00,
2013-11-13 22:33:00,26.0,19.5,30.57,North,355,1.0,1.0,76,0.00,,OVC055,0.00,VWS V14.01,2013-11-14 03:33:00,
2013-11-13 22:38:00,25.8,19.0,30.58,North,355,0.0,1.0,75,0.00,,OVC055,0.00,VWS V14.01,2013-11-14 03:38:00,
2013-11-13 22:43:00,25.8,19.0,30.57,North,355,0.0,1.0,75,0.00,,OVC055,0.00,VWS V14.01,2013-11-14 03:43:00,
2013-11-13 22:48:00,25.7,19.8,30.57,North,355,0.0,1.0,78,0.00,,OVC055,0.00,VWS V14.01,2013-11-14 03:48:00,
2013-11-13 22:53:00,25.5,19.3,30.57,North,355,0.0,1.0,77,0.00,,OVC055,0.00,VWS V14.01,2013-11-14 03:53:00,
2013-11-13 22:58:00,25.6,20.3,30.57,North,355,0.0,0.0,80,0.00,,OVC055,0.00,VWS V14.01,2013-11-14 03:58:00,
2013-11-13 23:00:00,25.6,20.3,30.57,North,355,0.0,1.0,80,0.00,,OVC055,0.00,VWS V14.01,2013-11-14 04:00:00,
2013-11-13 23:03:00,25.5,19.9,30.57,North,355,0.0,0.0,79,0.00,,OVC055,0.00,VWS V14.01,2013-11-14 04:03:00,
2013-11-13 23:08:00,25.3,19.7,30.57,North,355,0.0,0.0,79,0.00,,OVC055,0.00,VWS V14.01,2013-11-14 04:08:00,
2013-11-13 23:13:00,25.3,19.7,30.57,North,355,0.0,0.0,79,0.00,,OVC055,0.00,VWS V14.01,2013-11-14 04:13:00,
2013-11-13 23:18:00,25.1,19.8,30.56,North,355,0.0,2.0,80,0.00,,OVC055,0.00,VWS V14.01,2013-11-14 04:18:00,
2013-11-13 23:23:00,25.0,19.4,30.57,North,355,0.0,2.0,79,0.00,,OVC055,0.00,VWS V14.01,2013-11-14 04:23:00,
2013-11-13 23:28:00,25.0,20.3,30.57,North,355,0.0,0.0,82,0.00,,OVC055,0.00,VWS V14.01,2013-11-14 04:28:00,
2013-11-13 23:30:00,25.0,20.3,30.57,North,355,0.0,2.0,82,0.00,,OVC055,0.00,VWS V14.01,2013-11-14 04:30:00,
2013-11-13 23:33:00,24.9,19.9,30.56,North,355,0.0,0.0,81,0.00,,OVC055,0.00,VWS V14.01,2013-11-14 04:33:00,
2013-11-13 23:38:00,24.7,19.7,30.56,North,355,0.0,0.0,81,0.00,,OVC055,0.00,VWS V14.01,2013-11-14 04:38:00,
2013-11-13 23:43:00,24.6,19.3,30.56,North,355,0.0,1.0,80,0.00,,OVC055,0.00,VWS V14.01,2013-11-14 04:43:00,
2013-11-13 23:48:00,24.7,19.7,30.56,North,355,0.0,1.0,81,0.00,,OVC055,0.00,VWS V14.01,2013-11-14 04:48:00,
2013-11-13 23:53:00,24.8,19.5,30.56,North,355,0.0,1.0,80,0.00,,OVC055,0.00,VWS V14.01,2013-11-14 04:53:00,
2013-11-13 23:58:00,24.3,19.3,30.56,North,355,0.0,1.0,81,0.00,,OVC055,0.00,VWS V14.01,2013-11-14 04:58:00,